[[{"header":{"parameterUnit":"m.s-1","parameterCategory":1,"la1":30.2991,"la2":30.254,"lo1":-89.0895,"lo2":-89.0444,"dy":0.0017,"dx":0.0017,"nx":28,"ny":28,"refTime":"2023-10-12T21:00:00:Z","depth":0,"parameterNumber":2,"parameterNumberName":"U-component_of_WINDS"},"data":[0,0,0,0,0,0,0,0,0,0,0,0,0,0,0,0,0,0,0,0,0,0,0,0,0,0,0,0,0,0,0,0,0,0,0,0,0,0,0,0,0,0,0,0,0,0,0,0,0,0,0,0,0,0,0,0,0,0,1.4335,1.4335,0,1.4389,1.4389,1.439,1.4382,1.4381,1.438,1.4379,1.4433,1.4435,1.4438,0,0,0,0,0,0,0,0,0,0,0,0,0,1.4222,1.4224,1.4335,1.4335,1.4336,1.4389,1.4389,1.439,1.4382,1.4381,1.438,1.4379,1.4432,1.4435,1.4438,0,0,0,0,0,0,0,0,0,0,0,0,0,1.4273,1.4225,1.4335,1.4338,1.4339,1.4389,1.4389,1.439,1.4382,1.4381,1.438,1.4378,1.4431,1.4435,1.4438,1.4486,0,0,1.4449,1.445,0,0,0,0,0,0,0,0,1.427,1.4277,1.4337,1.4338,1.4339,1.4377,1.4369,1.4422,1.4383,1.4366,1.4379,1.4378,1.4416,1.442,1.4433,1.4489,1.4491,1.4449,1.4451,1.4452,1.4453,0,0,0,0,0,0,0,1.4267,1.4275,1.4356,1.4338,1.4339,1.4337,1.4342,1.4379,1.4398,1.4367,1.4367,1.4374,1.4416,1.443,1.4434,1.4492,1.4449,1.4452,1.4454,1.4455,1.4588,1.4589,0,0,0,0,0,0,1.4262,1.4272,1.4354,1.4358,1.4301,1.434,1.4346,1.4366,1.4397,1.4401,1.4375,1.4373,1.4425,1.443,1.4436,1.4493,1.4452,1.4456,1.4458,1.4586,1.4588,1.459,0,0,0,0,0,0,1.426,1.427,1.4352,1.4315,1.4325,1.4343,1.4366,1.4368,1.4382,1.4403,1.4406,1.4386,1.4424,1.4431,1.4474,1.4495,1.4457,1.446,1.4585,1.4587,1.4589,1.4608,0,0,0,0,0,0,1.4257,1.4269,1.4288,1.4315,1.4327,1.4389,1.4367,1.437,1.4388,1.4387,1.4414,1.4417,1.4423,1.4469,1.4477,1.4499,1.4463,1.4583,1.4586,1.4588,1.4606,1.4611,1.4615,0,0,0,0,0,1.4253,1.4291,1.4289,1.4299,1.4351,1.4391,1.4397,1.4404,1.439,1.4409,1.4422,1.4416,1.4492,1.4473,1.4482,1.4506,1.4581,1.4585,1.4588,1.4603,1.461,1.4615,0,0,0,0,0,0,1.4266,1.4295,1.4293,1.4342,1.4364,1.4389,1.4413,1.4411,1.4437,1.4434,1.4441,1.4447,1.4489,1.4502,1.4481,1.4553,1.4534,1.454,1.4543,1.4549,1.4554,1.4549,1.4466,0,0,0,0,0,1.4274,1.4305,1.4328,1.4369,1.438,1.4395,1.4412,1.4415,1.4438,1.4447,1.4464,1.4486,1.4514,1.4532,1.456,1.4608,1.4613,1.4628,1.4633,1.4637,1.4641,1.4665,1.4672,1.4601,1.4601,1.4601,0,0,1.4292,1.4312,1.4331,1.4372,1.4389,1.4419,1.4403,1.4435,1.4457,1.4452,1.4493,1.4505,1.453,1.4575,1.4596,1.4587,1.4662,1.4641,1.4644,1.4646,1.467,1.4676,1.4682,1.4603,1.4602,1.4602,0,0,1.434,1.4359,1.4393,1.4411,1.4438,1.4448,1.4456,1.4482,1.449,1.4531,1.4527,1.4553,1.4603,1.462,1.4635,1.4689,1.4684,1.4698,1.4722,1.4745,1.4751,1.4756,1.4773,1.478,1.4702,1.4702,1.4702,0,1.4358,1.4404,1.4412,1.4444,1.4462,1.446,1.4494,1.4511,1.4545,1.4557,1.4547,1.4608,1.4625,1.4673,1.4685,1.4699,1.4707,1.4694,1.475,1.4755,1.476,1.4776,1.4783,1.4703,1.4703,1.4703,1.4703,0,1.4424,1.4456,1.4481,1.4514,1.4535,1.4568,1.458,1.46,1.4601,1.4612,1.4652,1.4672,1.4703,1.4715,1.4717,1.4763,1.4756,1.4748,1.4729,1.4768,1.4783,1.479,1.4705,1.4705,1.4704,1.4704,0,0,1.448,1.4517,1.4526,1.4541,1.457,1.4594,1.4627,1.4658,1.4673,1.4697,1.4724,1.4766,1.4758,1.4775,1.4779,1.48,1.4839,1.4789,1.479,1.4796,1.4889,1.4893,1.4901,1.4837,1.4838,1.4839,1.4886,0,1.4529,1.4588,1.4596,1.4647,1.4675,1.4674,1.4702,1.4723,1.4733,1.4758,1.4769,1.4798,1.4786,1.4796,1.4818,1.483,1.4857,1.4827,1.486,1.4861,1.4852,1.4909,1.4914,1.4958,1.4892,1.4893,1.4894,0,1.4594,1.4619,1.4674,1.4698,1.471,1.4736,1.4763,1.4788,1.4811,1.4816,1.4836,1.4837,1.487,1.4851,1.4895,1.4874,1.4889,1.4897,1.4899,1.49,1.4879,1.4911,1.4972,1.4978,1.4904,1.4903,1.4903,0,1.4626,1.4675,1.4713,1.4726,1.4756,1.4773,1.4787,1.4808,1.4826,1.485,1.4861,1.4889,1.4903,1.4924,1.4932,1.4918,1.4976,1.4958,1.498,1.498,1.4991,1.499,1.5054,1.5004,1.5004,1.5003,1.5003,0,1.4679,1.4712,1.4728,1.4752,1.4788,1.4796,1.4832,1.4844,1.4863,1.4888,1.4889,1.4912,1.4922,1.4947,1.4954,1.4988,1.4996,1.5,1.5001,1.4999,1.4998,1.5007,1.5004,1.5005,1.5005,1.5004,1.5004,0,1.4721,1.4734,1.4775,1.48,1.4807,1.4833,1.4854,1.4876,1.4886,1.4917,1.4925,1.4941,1.497,1.4981,1.5016,1.502,1.506,1.506,1.5052,1.5052,1.5073,1.507,1.5143,1.5152,1.5098,1.5098,1.5099,0,1.4753,1.4778,1.4806,1.4823,1.4837,1.4864,1.4882,1.4891,1.4909,1.4937,1.4955,1.4984,1.5007,1.5053,1.5067,1.5094,1.5093,1.5117,1.5097,1.5094,1.5091,1.5089,1.509,1.512,1.512,1.5121,1.5121,0,1.4807,1.4812,1.4838,1.4866,1.4887,1.4909,1.493,1.4944,1.4956,1.4977,1.5006,1.5025,1.506,1.5088,1.5116,1.5128,1.5126,1.5128,1.5134,1.5131,1.5125,1.5127,1.506,1.5126,1.5125,1.5125,1.5125,1.5124,1.4844,1.4866,1.4888,1.4917,1.4934,1.4954,1.4975,1.4988,1.5013,1.5043,1.5047,1.5079,1.51,1.5136,1.515,1.5174,1.5168,1.5177,1.5179,1.5181,1.5181,1.5123,1.5179,1.5179,1.5179,1.5179,1.5179,0,1.4896,1.4911,1.4937,1.4967,1.4989,1.4987,1.501,1.5028,1.5056,1.5076,1.5099,1.5133,1.516,1.5176,1.5203,1.5219,1.5219,1.5226,1.5224,1.5226,1.5187,1.5178,1.5225,1.5225,1.5225,1.5225,1.5225,1.5225,1.4926,1.4962,1.497,1.5014,1.5028,1.5059,1.5072,1.509,1.5106,1.5144,1.5166,1.5177,1.5195,1.5224,1.5248,1.5252,1.5261,1.5268,1.5272,1.5234,1.5229,1.5225,1.5216,1.5271,1.5271,1.5309,1.5309,1.5309]},{"header":{"parameterUnit":"m.s-1","parameterCategory":1,"la1":30.2991,"la2":30.254,"lo1":-89.0895,"lo2":-89.0444,"dy":0.0017,"dx":0.0017,"nx":28,"ny":28,"refTime":"2023-10-12T21:00:00:Z","depth":0,"parameterNumber":3,"parameterNumberName":"V-component_of_WINDS"},"data":[0,0,0,0,0,0,0,0,0,0,0,0,0,0,0,0,0,0,0,0,0,0,0,0,0,0,0,0,0,0,0,0,0,0,0,0,0,0,0,0,0,0,0,0,0,0,0,0,0,0,0,0,0,0,0,0,0,0,1.7601,1.76,0,1.754,1.7539,1.7538,1.7491,1.7491,1.749,1.749,1.7424,1.7423,1.7421,0,0,0,0,0,0,0,0,0,0,0,0,0,1.7673,1.7672,1.7601,1.76,1.7599,1.754,1.7539,1.7538,1.7491,1.7491,1.749,1.749,1.7424,1.7423,1.7421,0,0,0,0,0,0,0,0,0,0,0,0,0,1.763,1.7671,1.7601,1.7569,1.7565,1.754,1.7539,1.7538,1.7491,1.7491,1.749,1.7489,1.7425,1.7423,1.7421,1.7421,0,0,1.7415,1.7414,0,0,0,0,0,0,0,0,1.7632,1.7627,1.7574,1.7571,1.7567,1.7522,1.754,1.7499,1.7492,1.7519,1.749,1.7489,1.7457,1.7452,1.7442,1.7418,1.7416,1.7415,1.7413,1.7413,1.7412,0,0,0,0,0,0,0,1.7635,1.7629,1.7576,1.7574,1.7569,1.7556,1.7549,1.7532,1.7492,1.7517,1.7513,1.7507,1.7455,1.7444,1.744,1.7415,1.7415,1.7413,1.7412,1.7411,1.7386,1.7386,0,0,0,0,0,0,1.7644,1.7632,1.7578,1.7575,1.7599,1.7555,1.7548,1.7537,1.7493,1.7485,1.7508,1.7505,1.7448,1.7443,1.7438,1.7434,1.7413,1.7411,1.7409,1.7385,1.7386,1.7386,0,0,0,0,0,0,1.7645,1.7639,1.7581,1.7602,1.7594,1.7555,1.7544,1.7536,1.7526,1.7486,1.7478,1.7504,1.7447,1.7441,1.7426,1.7431,1.741,1.7408,1.7384,1.7385,1.7386,1.7427,0,0,0,0,0,0,1.7648,1.764,1.7641,1.7603,1.7593,1.7571,1.7544,1.7536,1.7523,1.7519,1.748,1.7473,1.7446,1.7429,1.7424,1.7428,1.7406,1.7384,1.7385,1.7386,1.7425,1.7429,1.7433,0,0,0,0,0,1.765,1.7655,1.7641,1.7635,1.7593,1.7572,1.7566,1.7536,1.7524,1.7523,1.7497,1.7475,1.7432,1.7428,1.7421,1.7425,1.7383,1.7385,1.7386,1.7423,1.7428,1.7433,0,0,0,0,0,0,1.7694,1.7649,1.7634,1.7626,1.7603,1.7564,1.7563,1.7542,1.7521,1.7518,1.7481,1.7472,1.7461,1.7441,1.7438,1.7422,1.7404,1.7404,1.7435,1.744,1.7443,1.7448,1.7405,0,0,0,0,0,1.7703,1.769,1.7651,1.7648,1.7637,1.7602,1.7591,1.757,1.7544,1.7534,1.7507,1.7481,1.7462,1.745,1.743,1.7422,1.7412,1.7421,1.7425,1.7429,1.7429,1.7421,1.7425,1.739,1.739,1.739,0,0,1.772,1.7694,1.7689,1.7656,1.7636,1.7622,1.7594,1.7581,1.757,1.7531,1.7516,1.7495,1.7464,1.7452,1.7446,1.7436,1.7436,1.743,1.7433,1.7431,1.7423,1.7426,1.7429,1.7391,1.7391,1.7391,0,0,1.7746,1.7726,1.772,1.77,1.767,1.7646,1.7645,1.7608,1.7593,1.7577,1.7548,1.7533,1.7501,1.7479,1.7464,1.748,1.7458,1.7475,1.7494,1.7488,1.749,1.7493,1.7497,1.7499,1.7475,1.7475,1.7475,0,1.7771,1.775,1.7719,1.7708,1.7693,1.7659,1.7652,1.7634,1.7598,1.7589,1.7578,1.7536,1.7513,1.7495,1.7499,1.7488,1.7484,1.7479,1.7493,1.7495,1.7496,1.75,1.7501,1.7477,1.7477,1.7477,1.7477,0,1.7782,1.7768,1.7767,1.7734,1.772,1.7711,1.7677,1.7666,1.7646,1.7623,1.7605,1.7576,1.7549,1.7544,1.7524,1.7522,1.7517,1.75,1.7481,1.7502,1.7504,1.7506,1.748,1.748,1.7479,1.7479,0,0,1.7833,1.7783,1.7783,1.7767,1.7731,1.7718,1.7707,1.7681,1.7672,1.7648,1.7636,1.7609,1.7593,1.7576,1.7553,1.7548,1.756,1.7531,1.753,1.7536,1.7554,1.7566,1.7568,1.7545,1.7545,1.7546,1.7556,0,1.7851,1.783,1.7801,1.7789,1.7774,1.7741,1.7731,1.7707,1.7685,1.7668,1.7643,1.7624,1.7605,1.7594,1.7587,1.756,1.7563,1.7559,1.7532,1.7531,1.754,1.757,1.7583,1.7594,1.7557,1.7558,1.7558,0,1.787,1.7849,1.7835,1.7799,1.7792,1.7783,1.7756,1.7742,1.7712,1.7697,1.7677,1.7653,1.7637,1.7621,1.7597,1.7595,1.7582,1.7567,1.7567,1.7562,1.7545,1.7565,1.7598,1.7599,1.7559,1.7559,1.7559,0,1.7906,1.7874,1.7862,1.7849,1.7807,1.7801,1.7783,1.7754,1.774,1.7716,1.7706,1.7681,1.7666,1.7646,1.7614,1.7606,1.7594,1.7575,1.7578,1.7579,1.7576,1.7577,1.7606,1.757,1.757,1.757,1.757,0,1.7929,1.7922,1.7877,1.7869,1.7859,1.7826,1.7817,1.7795,1.7769,1.7755,1.7725,1.7712,1.7671,1.7653,1.7628,1.7612,1.7606,1.7591,1.7584,1.7593,1.7595,1.7583,1.7581,1.7571,1.7571,1.7571,1.7571,0,1.7968,1.7938,1.7922,1.7883,1.7873,1.7868,1.7834,1.7824,1.78,1.7782,1.7776,1.7738,1.7715,1.7682,1.7649,1.7632,1.7618,1.7608,1.7628,1.7624,1.7628,1.7628,1.765,1.7651,1.7616,1.7617,1.7617,0,1.7984,1.7977,1.7938,1.7927,1.791,1.7893,1.7879,1.7845,1.7831,1.7797,1.779,1.7765,1.7743,1.7708,1.7676,1.765,1.7638,1.7647,1.7634,1.7642,1.7636,1.7636,1.7635,1.7651,1.7651,1.7652,1.7652,0,1.8014,1.8,1.7981,1.7957,1.794,1.7919,1.7897,1.7889,1.785,1.7835,1.7812,1.7795,1.7761,1.7735,1.7705,1.7684,1.7661,1.7657,1.7656,1.7664,1.7676,1.7668,1.7636,1.7656,1.7656,1.7655,1.7655,1.7655,1.8041,1.8033,1.8004,1.7984,1.7963,1.7943,1.7931,1.7906,1.7886,1.7857,1.7838,1.7815,1.7784,1.7741,1.7721,1.7701,1.7692,1.7691,1.769,1.769,1.7693,1.768,1.7696,1.7696,1.7696,1.7695,1.7695,0,1.8069,1.8049,1.803,1.8,1.7983,1.7964,1.7938,1.7925,1.7905,1.7879,1.7859,1.7831,1.7806,1.7772,1.7744,1.7735,1.7723,1.7728,1.7728,1.7723,1.7704,1.7707,1.7738,1.7738,1.7738,1.7738,1.7738,1.7738,1.8082,1.8067,1.8049,1.8023,1.8002,1.7981,1.7967,1.7947,1.7926,1.7897,1.7876,1.7855,1.7825,1.7795,1.777,1.7761,1.7751,1.7759,1.7746,1.7729,1.7725,1.7721,1.7724,1.7758,1.7758,1.7767,1.7767,1.7767]}]]